Home > Weather > Boa Vista > Past weeks

Flag for Brazil Past Weather in Boa Vista, Roraima, Brazil — Yesterday and Last 2 Weeks

Now
86 °F

Broken clouds.


Feels Like: 92 °F
Forecast: 73 / 85 °F
Wind: 5 mph from Southeast

Location: Boa Vista Aeropor-To

Current Time: Jun 28, 2016 at 11:10:20 AM

Latest Report: Jun 28, 2016 at 10:00 AM


Visibility: N/A

Pressure: 30.01 "Hg

Humidity: 62%

Dew Point: 72 °F

Location of Boa VistaLocation

Past Weather in Boa Vista — Graph

°F

Boa Vista Temperature Yesterday

Maximum temperature yesterday: 91 °F (at 2:00 PM)
Minimum temperature yesterday: 77 °F (at 5:00 AM)
Average temperature yesterday: 84 °F

High & Low Weather Summary for the Past Weeks

 TemperatureHumidityPressure
High91 °F (Jun 27, 2:00 PM)100% (Jun 13, 9:00 AM)30.09 "Hg (Jun 13, 9:00 AM)
Low37 °F (Jun 13, 9:00 AM)20% (Jun 13, 6:00 PM)29.83 "Hg (Jun 19, 4:00 PM)
Average77 °F81%29.96 "Hg
* Reported Jun 13 9:00 AM — Jun 28 9:00 AM, Boa Vista, Weather by CustomWeather, © 2016

Note: Actual official high and low records may vary slightly from our data, if they occured in-between our weather recording intervals... More about our weather records

Advertising

Boa Vista Weather History for the Previous 24 Hours

Scroll right to see more
 ConditionsComfort  
Time TempWeatherWind HumidityBarometerVisibility
9:00 AM
Tue, Jun 28
82 °FPartly sunny.2 mph79%30.01 "HgN/A
8:00 AM81 °FBroken clouds.3 mph84%30.01 "HgN/A
7:00 AM79 °FBroken clouds.2 mph89%29.98 "HgN/A
6:00 AM77 °FBroken clouds.No wind89%29.95 "HgN/A
5:00 AM79 °FClear.No wind84%29.95 "Hg10 mi
4:00 AM79 °FClear.2 mph84%29.95 "Hg10 mi
3:00 AM79 °FClear.No wind84%29.95 "Hg10 mi
2:00 AM79 °FClear.No wind84%29.95 "Hg10 mi
1:00 AM79 °FClear.2 mph84%29.95 "Hg10 mi
12:00 AM81 °FClear.2 mph79%29.98 "Hg10 mi
11:00 PM
Mon, Jun 27
82 °FClear.6 mph79%29.98 "Hg10 mi
10:00 PM84 °FClear.2 mph66%29.95 "Hg10 mi
9:00 PM84 °FClear.1 mph70%29.95 "Hg10 mi
8:00 PM86 °FClear.3 mph62%29.92 "Hg10 mi
7:00 PM88 °FClear.3 mph55%29.89 "Hg10 mi
6:00 PM90 °FPassing clouds.7 mph52%29.89 "HgN/A
5:00 PM91 °FPassing clouds.12 mph46%29.86 "HgN/A
4:00 PM90 °FPassing clouds.10 mph52%29.86 "HgN/A
3:00 PM91 °FPassing clouds.9 mph49%29.89 "HgN/A
2:00 PM91 °FScattered clouds.10 mph49%29.92 "HgN/A
1:00 PM90 °FBroken clouds.7 mph55%29.95 "HgN/A
12:00 PM88 °FBroken clouds.7 mph62%29.98 "HgN/A
11:00 AM86 °FBroken clouds.8 mph66%30.01 "HgN/A
Weather by CustomWeather, © 2016

See weather overviewHow to use our weather pages